User: anonymous   Login
Location: Alsip
(41.6689°N, 87.7387°W)
Time: 19:50:43
(UTC+00:00)
Language:

Cosmos 1048 Rocket - Orbit

View from above orbital plane
View from above orbital plane
View from above satellite
View from above satellite

Ground track
Ground track

The orbit data is extracted from the following two-line orbital elements,

1 11112U 78105B   21136.15451937  .00000026  00000-0  17663-4 0  9990
2 11112  74.0331  56.9806 0034643 226.5426 133.2845 14.37308143224791
Epoch (UTC): 16 May 2021 03:42:30
Eccentricity: 0.0034643
inclination: 74.0331°
perigee height: 742 km
apogee height: 792 km
right ascension of ascending node: 56.9806°
argument of perigee: 226.5426°
revolutions per day: 14.37308143
mean anomaly at epoch: 133.2845°
orbit number at epoch: 22479

The dashed part of the orbit path shows where the satellite is in the earth's shadow,  

DLR